Flag for Lebanon Weather past 2 weeks in Beirut, Lebanon

Now
64 °F

Partly sunny.


Feels Like: 64 °F
Forecast: 53 / 63 °F
Wind: 9 mph from Southwest

Location: Beirut Airport

Current Time: Mar 4, 2015 at 1:46:25 PM

Latest Report: Mar 4, 2015 at 1:00 PM


Visibility: 5 mi

Pressure: 30.12 "Hg

Humidity: 68%

Dew point: 54 °F

Location of BeirutLocation

Historic Weather in Beirut — Graph

°F

Beirut temperature yesterday

Maximum temperature yesterday: 64 °F (at 10:00 AM)
Minimum temperature yesterday: 57 °F (at 6:00 AM)
Average temperature yesterday: 61 °F

Past Weeks' High & Low Weather Summary

 TemperatureHumidityPressure
High77 °F (Feb 27, 3:00 PM)88% (Feb 25, 4:00 AM)30.24 "Hg (Feb 25, 4:00 AM)
Low41 °F (Feb 20, 10:00 AM)19% (Feb 27, 3:00 PM)29.71 "Hg (Feb 20, 5:00 AM)
Average58 °F63%30.04 "Hg
* Reported Feb 17 12:00 Noon — Mar 4 12:00 Noon, Beirut, Weather by CustomWeather, © 2015

Note: Actual official high and low records may vary slightly from our data, if they occured in-between our weather recording intervals... More about our weather records

Advertising

Beirut weather history for previous 24 hours

 ConditionsComfort  
Time TempWeatherWind HumidityBarometerVisibility
12:00 PM
Wed, Mar 4
64 °FPartly sunny.10 mph68%30.15 "Hg5 mi
11:00 AM63 °FPartly sunny.12 mph73%30.15 "Hg5 mi
10:00 AM64 °FPartly sunny.9 mph64%30.15 "Hg5 mi
9:00 AM63 °FPartly sunny.8 mph73%30.15 "Hg4 mi
8:00 AM61 °FPartly sunny.5 mph77%30.15 "Hg4 mi
7:00 AM57 °FPartly sunny.3 mph82%30.12 "Hg4 mi
6:00 AM57 °FPassing clouds.5 mph82%30.09 "Hg4 mi
5:00 AM57 °FPassing clouds.5 mph82%30.09 "Hg5 mi
4:00 AM57 °FPassing clouds.3 mph82%30.12 "Hg5 mi
3:00 AM57 °FPassing clouds.3 mph82%30.09 "Hg5 mi
2:00 AM57 °FPassing clouds.3 mph82%30.12 "Hg5 mi
1:00 AM57 °FPassing clouds.6 mph77%30.12 "Hg5 mi
12:00 AM57 °FRain. Passing clouds.8 mph77%30.12 "Hg5 mi
11:00 PM
Tue, Mar 3
59 °FLight rain. Passing clouds.5 mph77%30.15 "Hg5 mi
10:00 PM57 °FPassing clouds.6 mph82%30.15 "Hg4 mi
9:00 PM57 °FPassing clouds.6 mph77%30.15 "Hg5 mi
8:00 PM59 °FRain. Passing clouds.22 mph72%30.12 "Hg3 mi
7:00 PM61 °FPassing clouds.6 mph63%30.12 "HgN/A
6:00 PM61 °FPassing clouds.9 mph63%30.12 "HgN/A
5:00 PM63 °FScattered clouds.10 mph59%30.12 "HgN/A
4:00 PM64 °FPartly sunny.10 mph56%30.12 "Hg5 mi
3:00 PM64 °FPartly sunny.12 mph60%30.12 "Hg5 mi
2:00 PM64 °FPartly sunny.13 mph60%30.12 "HgN/A
1:00 PM63 °FPartly sunny.8 mph68%30.15 "Hg5 mi
Weather by CustomWeather, © 2015

See weather overviewHow to use our weather pages